Oujda, Morocco

2:38 AM WET on February 24, 2018 (GMT +0000)
Oujda

Weather History for GMFO - April, 2013

Change the Weather History Date:

Saturday, April 13, 2013

  Actual Average Record
Temperature  
Mean Temperature 65 °F -  
Max Temperature 75 °F 72 °F 89 °F (2003)
Min Temperature 55 °F 49 °F 33 °F (2004)
Growing Degree Days 15 (Base 50)    
Moisture  
Dew Point 57 °F    
Average Humidity 73    
Maximum Humidity 88    
Minimum Humidity 53    
Precipitation  
Precipitation 0.02 in 0.06 in - ()
Sea Level Pressure  
Sea Level Pressure 30.08 in    
Wind  
Wind Speed 7 mph ()    
Max Wind Speed 20 mph    
Max Gust Speed -    
Visibility 6.5 miles    
Events Thunderstorm    
Averages and records for this station are not official NWS values.
T = Trace of Precipitation, MM = Missing Value Source: Averaged Metar Reports

Daily Weather History Graph

Daily Weather History Graph

Search for Another Location

Airport or City:

Trip Planner

Search our weather history database for the weather conditions in past years. The results will help you decide how hot, cold, wet, or windy it might be!

Date:

Astronomy

Apr. 13, 2013 Rise Set
Actual Time 5:38 AM WET 6:38 PM WET
Civil Twilight 5:12 AM WET 7:04 PM WET
Nautical Twilight 4:42 AM WET 7:35 PM WET
Astronomical Twilight 4:10 AM WET 8:06 PM WET
Moon 7:25 AM WET (4/13) 9:42 PM WET (4/13)
Length of Visible Light 13h 51m
Length of Day
12h 59m
Waxing Crescent, 9% of the Moon is Illuminated
Apr 13
Waxing Crescent
Apr 18
First Quarter
Apr 25
Full
May 2
Last Quarter
May 10
New

Hourly Weather History & Observations

Time (WET) Temp. Dew Point Humidity Pressure Visibility Wind Dir Wind Speed Gust Speed Precip Events Conditions
12:00 AM 60.8 °F 51.8 °F 72% 30.12 in 6.2 mi ENE 3.5 mph - N/A Thunderstorm Thunderstorm
2:00 AM 57.2 °F 51.8 °F 82% 30.04 in 6.2 mi NNE 9.2 mph - N/A   Scattered Clouds
3:00 AM 56 °F 51 °F 80% 30.05 in 6 mi NNW 8.1 mph - -  
3:00 AM 55.4 °F 51.8 °F 88% 30.04 in 6.2 mi NNW 9.2 mph - N/A   Unknown
4:00 AM 55.4 °F 51.8 °F 88% 30.06 in - NNW 5.8 mph - N/A   Unknown
5:00 AM 57.2 °F 50.0 °F 77% 30.06 in - North 8.1 mph - N/A   Unknown
7:00 AM 57.2 °F 53.6 °F 88% 30.12 in 6.2 mi SSE 4.6 mph - N/A   Scattered Clouds
8:00 AM 60.8 °F 53.6 °F 77% 30.15 in 6.2 mi SSW 5.8 mph - N/A   Scattered Clouds
9:00 AM 67 °F 55 °F 55% 30.10 in 9 mi NW 2.3 mph - -   Scattered Clouds
9:00 AM 68.0 °F 55.4 °F 64% 30.15 in 6.2 mi Variable 1.2 mph - N/A   Scattered Clouds
10:00 AM 71.6 °F 55.4 °F 57% 30.12 in 6.2 mi SSE 3.5 mph - N/A   Scattered Clouds
11:00 AM 75.2 °F 57.2 °F 53% 30.09 in 6.2 mi ENE 6.9 mph - N/A   Scattered Clouds
12:00 PM 68 °F 57 °F 58% 30.06 in 9 mi North 16.1 mph - -  
12:00 PM 68.0 °F 57.2 °F 68% 30.09 in 6.2 mi North 16.1 mph - N/A   Scattered Clouds
1:00 PM 66.2 °F 57.2 °F 73% 30.09 in 6.2 mi North 19.6 mph - N/A   Scattered Clouds
2:00 PM 71.6 °F 59.0 °F 64% 30.09 in 6.2 mi North 12.7 mph - N/A   Scattered Clouds
2:45 PM 72 °F 60 °F 56% 30.02 in 9 mi North 11.5 mph - -   Scattered Clouds
3:00 PM 71.6 °F 59.0 °F 64% 30.06 in 6.2 mi North 11.5 mph - N/A   Scattered Clouds
4:00 PM 73.4 °F 60.8 °F 65% 30.06 in 6.2 mi North 12.7 mph - N/A   Partly Cloudy
5:00 PM 73.4 °F 60.8 °F 65% 30.06 in 6.2 mi East 10.4 mph - N/A   Scattered Clouds
6:00 PM 71 °F 61 °F 63% 30.01 in 9 mi ENE 8.1 mph - -   Scattered Clouds
6:00 PM 71.6 °F 60.8 °F 69% 30.06 in 6.2 mi ENE 8.1 mph - N/A   Scattered Clouds
7:00 PM 64.4 °F 59.0 °F 83% 30.06 in 6.2 mi North 6.9 mph - N/A   Scattered Clouds
8:00 PM 62.6 °F 59.0 °F 88% 30.09 in 6.2 mi NNW 5.8 mph - N/A   Mostly Cloudy
9:00 PM 62 °F 59 °F 85% 30.09 in 5 mi West 2.3 mph - -   Scattered Clouds
9:00 PM 62.6 °F 59.0 °F 88% 30.12 in 5.0 mi Variable 2.3 mph - N/A   Mostly Cloudy
10:00 PM 62.6 °F 59.0 °F 88% 30.12 in 6.2 mi West 3.5 mph - N/A   Scattered Clouds
11:00 PM 62.6 °F 59.0 °F 88% 30.12 in 6.2 mi ENE 8.1 mph - N/A   Scattered Clouds